Regional Weather Roundup
Issued by NWS Lake Charles, LA

Home | Current Version | Previous Version | Text Only | Print | Product List | Glossary On
Versions: 1 2 3 4 5 6 7 8 9 10 11 12 13 14 15 16 17 18 19 20 21 22 23 24 25 26 27 28
000
ASUS44 KLCH 251710
RWRLCH
REGIONAL WEATHER ROUNDUP
NATIONAL WEATHER SERVICE LAKE CHARLES LA
1200 PM CDT THU MAY 25 2017

Note: "fair" indicates few or no clouds below 12,000 feet with no
significant weather and/or obstructions to visibility.


ACROSS SOUTHEAST TEXAS

CITY           SKY/WX    TMP DP  RH WIND       PRES   REMARKS
BEAUMONT       SUNNY     83  62  49 S17G24    29.86R
BEAUMONT CITY  FAIR      84  60  45 MISG      29.86S
ORANGE         PTSUNNY   82  65  57 SW16G25   29.88S
JASPER           N/A     83  63  51 S12G18    29.86F
$$

ACROSS CENTRAL LOUISIANA

CITY           SKY/WX    TMP DP  RH WIND       PRES   REMARKS
LEESVILLE      MOSUNNY   80  63  55 SW12      29.85S
FULLERTON      FAIR      81  63  54 VRB6G20   29.83S
ALEXANDRIA INT MOSUNNY   79  57  46 S8        29.85S
ESLER FIELD    SUNNY     78  55  44 VRB7      29.87S
DERIDDER       PTSUNNY   80  62  52 S13       29.88S
OAKDALE        PTSUNNY   80  64  57 S7        29.87F
OPELOUSAS      FAIR      79  60  51 SW7       29.88F
$$

ACROSS SOUTHWEST AND SOUTH CENTRAL LOUISIANA

CITY           SKY/WX    TMP DP  RH WIND       PRES   REMARKS
SULPHUR        MOSUNNY   82  65  54 SW16      29.88S
LAKE CHARLES   SUNNY     81  63  54 S15G22    29.87S
CHENNAULT INT  MOSUNNY   82  63  51 S13       29.88R
CAMERON PHI    SUNNY     79  64  61 SW15G21   29.87S
DEQUINCY       PTSUNNY   79  63  57 S10G16    29.87S
JENNINGS       PTSUNNY   79  63  56 SW9       29.88R
LAFAYETTE      SUNNY     80  62  54 S10       29.89S
NEW IBERIA     MOSUNNY   81  60  48 S8        29.90S
ABBEVILLE      FAIR      81  66  61 SW10G18   29.89F
PATTERSON      MOSUNNY   80  60  50 SW8       29.91F
SALT POINT       N/A     79  61  53 SW7       29.90R
$$

SELECTED SITES ACROSS THE REGION

CITY           SKY/WX    TMP DP  RH WIND       PRES   REMARKS
HOUSTON BUSH   SUNNY     85  61  44 S14G22    29.82F
HOUSTON HOBBY  SUNNY     84  60  44 S16G26    29.83F
GALVESTON      SUNNY     83  66  56 S21G28    29.87S
COLLEGE STAT   SUNNY     84  60  44 S21G28    29.79R
CONROE         SUNNY     84  59  42 SW15G23   29.82S
HUNTSVILLE     SUNNY     83  58  42 S15G25    29.80F
LUFKIN         SUNNY     81  59  47 S16G23    29.81F
SHREVEPORT     MOSUNNY   80  59  48 S14G21    29.80F
MONROE         SUNNY     75  52  44 S8        29.87S
NATCHEZ MS     SUNNY     75  53  46 SW9       29.89F
BATON ROUGE    SUNNY     78  52  40 SW8       29.90F
N.O. INTL ARPT MOSUNNY   78  52  40 SW8       29.91S
SLIDELL        SUNNY     77  49  37 MISG      29.90S
$$

MARINE REPORTS

STATION/POSITION TIME  SKY/WX   TEMP    WIND        PRES    VSBY
                                AIR SEA DIR/SP/G
                 (UTC)          (F)     (DEG/KT/KT) (MB)    (MI)
BUOY 30 S HIGH I 1550            78 78  210/ 17/ 21 1010.9
WVE H/P(F/S)=  4/ 5

SEA RIM ST PARK  1600            78     210/ 16/ 19 1011.9R
PORT ARTHUR      1648            79 78  190/ 13/ 19 1011.6R
SABINE PASS N    1648            80 80  200/ 14/ 21 1012.9R
TEXAS POINT      NOT AVBL
CALCASIEU PASS   1648            77 78  220/ 17/ 19   N/A
LK CHARLES BEACH 1648            79 74              1012.0R
MARSH ISLAND     1600            79                   N/A
FRESH WATER LOCK 1648            78 77  200/  9/ 14 1012.3R
AMERADA PASS     1648            77 74  160/  2/  7 1012.9R
$$




USA.gov is the U.S. government's official web portal to all federal, state and local government web resources and services.